Home   Weather   Emmen   Past weeks

Flag for Switzerland Past Weather in Emmen, Lucerne, Switzerland — Yesterday and Last 2 Weeks

Now
26 °F

Chilly.


Feels Like: 21 °F
Forecast: 28 / 41 °F
Wind: 3 mph from Southwest

Location: Giswil

Current Time: Dec 11, 2016 at 11:10:28 am

Latest Report: Dec 11, 2016 at 10:00 am


Visibility: N/A

Pressure: 30.42 "Hg

Humidity: 99%

Dew Point: 26 °F

Location of EmmenLocation

Past Weather in Emmen — Graph

°F

Emmen Temperature Yesterday

Maximum temperature yesterday: 43 °F (at 3:00 pm)
Minimum temperature yesterday: 22 °F (at 8:00 am)
Average temperature yesterday: 28 °F

High & Low Weather Summary for the Past Weeks

 TemperatureHumidityPressure
High47 °F (Nov 27, 12:00 pm)100% (Nov 27, 1:00 am)30.73 "Hg (Nov 27, 1:00 am)
Low20 °F (Dec 9, 8:00 am)56% (Dec 1, 3:00 pm)30.02 "Hg (Nov 27, 2:00 pm)
Average31 °F94%30.39 "Hg
* Reported Nov 26 9:00 am — Dec 11 9:00 am, Emmen, Weather by CustomWeather, © 2016

Note: Actual official high and low records may vary slightly from our data, if they occured in-between our weather recording intervals... More about our weather records

Advertising

Emmen Weather History for the Previous 24 Hours

Scroll right to see more
 ConditionsComfort  
Time TempWeatherWind HumidityBarometerVisibility
9:00 am
Sun, Dec 11
24 °FCold.2 mph99%30.44 "HgN/A
8:00 am23 °FCold.2 mph100%30.45 "HgN/A
7:00 am21 °FCold.3 mph99%30.42 "HgN/A
6:00 am21 °FCold.2 mph100%30.42 "HgN/A
5:00 am23 °FCold.1 mph100%30.38 "HgN/A
4:00 am21 °FCold.2 mph100%30.36 "HgN/A
3:00 am23 °FCold.1 mph99%30.36 "HgN/A
2:00 am23 °FCold.1 mph100%30.38 "HgN/A
1:00 am22 °FCold.2 mph99%30.39 "HgN/A
12:00 am24 °FCold.2 mph99%30.39 "HgN/A
11:00 pm
Sat, Dec 10
25 °FCold.2 mph99%30.38 "HgN/A
10:00 pm25 °FChilly.2 mph100%30.39 "HgN/A
9:00 pm25 °FChilly.No wind100%30.42 "HgN/A
8:00 pm26 °FChilly.1 mph99%30.42 "HgN/A
7:00 pm27 °FChilly.1 mph99%30.42 "HgN/A
6:00 pm28 °FChilly.2 mph99%30.42 "HgN/A
5:00 pm30 °FChilly.1 mph99%30.42 "HgN/A
4:00 pm33 °FChilly.2 mph91%30.41 "HgN/A
3:00 pm43 °FQuite cool.1 mph59%30.37 "HgN/A
2:00 pm43 °FQuite cool.2 mph65%30.39 "HgN/A
1:00 pm40 °FChilly.1 mph68%30.41 "HgN/A
12:00 pm35 °FChilly.1 mph92%30.43 "HgN/A
11:00 am32 °FChilly.1 mph98%30.46 "HgN/A
Weather by CustomWeather, © 2016

See weather overviewHow to use our weather pages